Weather History for Benton Harbor, MI

Change the Weather History Date:

Saturday, August 24, 2013

  Actual Average Record
Temperature  
Mean Temperature 66 °F -  
Max Temperature 82 °F 80 °F 95 °F (1948)
Min Temperature 51 °F 57 °F 41 °F (1984)
Cooling Degree Days 1    
Growing Degree Days 16 (Base 50)    
Moisture  
Dew Point 57 °F    
Average Humidity 76    
Maximum Humidity 100    
Minimum Humidity 41    
Precipitation  
Precipitation 0.01 in - - ()
Sea Level Pressure  
Sea Level Pressure 30.25 in    
Wind  
Wind Speed 2 mph (SSE)    
Max Wind Speed 9 mph    
Max Gust Speed -    
Visibility 10 miles    
Events      
Averages and records for this station are not official NWS values.
T = Trace of Precipitation, MM = Missing Value Source: NWS Daily Summary

Daily Weather History Graph

Daily Weather History Graph

Search for Another Location

Airport:

Trip Planner

Search our weather history database for the weather conditions in past years. The results will help you decide how hot, cold, wet, or windy it might be!

Date:

Astronomy

Aug. 24, 2013 Rise Set
Actual Time 7:03 AM EDT 8:32 PM EDT
Civil Twilight 6:33 AM EDT 9:01 PM EDT
Nautical Twilight 5:58 AM EDT 9:36 PM EDT
Astronomical Twilight 5:20 AM EDT 10:14 PM EDT
Moon 10:20 PM EDT (8/24) 11:07 AM EDT (8/24)
Length of Visible Light 14h 27m
Length of Day
13h 29m
Waning Gibbous, 84% of the Moon is Illuminated
Aug 24
Waning Gibbous
Aug 28
Last Quarter
Sep 5
New
Sep 12
First Quarter
Sep 19
Full

Hourly Weather History & Observations

Time (EDT) Temp. Heat Index Dew Point Humidity Pressure Visibility Wind Dir Wind Speed Gust Speed Precip Events Conditions
12:53 AM 57.0 °F - 55.9 °F 96% 30.19 in 9.0 mi Calm Calm - N/A   Clear
1:53 AM 55.0 °F - 55.0 °F 100% 30.20 in 8.0 mi Calm Calm - N/A   Clear
2:53 AM 54.0 °F - 54.0 °F 100% 30.20 in 8.0 mi Calm Calm - N/A   Clear
3:53 AM 54.0 °F - 53.1 °F 97% 30.22 in 9.0 mi Calm Calm - N/A   Clear
4:53 AM 52.0 °F - 52.0 °F 100% 30.22 in 9.0 mi Calm Calm - N/A   Clear
5:53 AM 52.0 °F - 52.0 °F 100% 30.24 in 9.0 mi Calm Calm - N/A   Clear
6:53 AM 51.1 °F - 51.1 °F 100% 30.26 in 9.0 mi Calm Calm - 0.01 in   Clear
7:53 AM 54.0 °F - 54.0 °F 100% 30.28 in 8.0 mi East 3.5 mph - N/A   Clear
8:53 AM 63.0 °F - 57.9 °F 84% 30.29 in 10.0 mi ESE 5.8 mph - N/A   Clear
9:53 AM 69.1 °F - 59.0 °F 70% 30.29 in 10.0 mi ESE 5.8 mph - N/A   Clear
10:53 AM 73.0 °F - 57.9 °F 59% 30.29 in 10.0 mi SE 9.2 mph - N/A   Clear
11:53 AM 75.9 °F - 57.9 °F 54% 30.28 in 10.0 mi South 6.9 mph - N/A   Clear
12:53 PM 79.0 °F - 55.0 °F 44% 30.28 in 10.0 mi SSE 6.9 mph - N/A   Clear
1:53 PM 81.0 °F 80.8 °F 55.9 °F 42% 30.27 in 10.0 mi South 8.1 mph - N/A   Clear
2:53 PM 81.0 °F 80.7 °F 55.0 °F 41% 30.27 in 10.0 mi South 5.8 mph - N/A   Clear
3:53 PM 79.0 °F - 60.1 °F 52% 30.26 in 10.0 mi Variable 5.8 mph - N/A   Clear
4:53 PM 79.0 °F - 57.0 °F 47% 30.25 in 10.0 mi NW 6.9 mph - N/A   Clear
5:53 PM 78.1 °F - 57.9 °F 50% 30.23 in 10.0 mi NNW 3.5 mph - N/A   Clear
6:53 PM 78.1 °F - 59.0 °F 52% 30.23 in 10.0 mi Calm Calm - N/A   Clear
7:53 PM 73.9 °F - 60.1 °F 62% 30.23 in 10.0 mi Calm Calm - N/A   Clear
8:53 PM 68.0 °F - 62.1 °F 81% 30.23 in 10.0 mi Calm Calm - N/A   Clear
9:53 PM 64.0 °F - 62.1 °F 93% 30.24 in 10.0 mi Calm Calm - N/A   Clear
10:53 PM 62.1 °F - 61.0 °F 96% 30.24 in 10.0 mi Calm Calm - N/A   Clear
11:53 PM 61.0 °F - 60.1 °F 97% 30.24 in 8.0 mi Calm Calm - N/A   Clear